Weather in Zolochiv

Ukraine / Kharkiv Region     50˚16′58″N   35˚58′10″E
temp.,
°C
wind,
m/s
gust,
m/s
humid.,
%
clouds,
%
prec.,
mm/h
press.,
hPa
HPBL,
m
28 november, sat
sat2823:00+3˚sw3786100 0.0 1019211
02:00+2˚sw3579100 0.0 1019174
05:00+3˚sw2383100 0.0 102099
08:00+3˚sse2384100 0.0 1020116
11:00+5˚sse4776100 0.0 1021388
14:00+5˚sse41197100 0.9 1019476
17:00+6˚sse51385100 0.9 1019658
20:00+6˚sse61482100 1.1 1020640
29 november, sun
sun2923:00+5˚sse81479100 0.0 1020450
02:00+5˚sse61287100 0.0 1021442
05:00+4˚se61283100 0.0 1020422
08:00+3˚se71478100 0.0 1022380
11:00+4˚se71177100 0.0 1022396
14:00+4˚se6981100 0.0 1023449
17:00+4˚se5987100 0.0 1023416
20:00+5˚se51086100 0.0 1024348
30 november, mon
mon3023:00+5˚se61189100 0.0 1024439
02:00+5˚se61288100 0.0 1024541
05:00+5˚se61188100 0.0 1024545
08:00+5˚se61186100 0.0 1025635
11:00+6˚se61083100 0.0 1025716
14:00+6˚se6978100 0.0 1025770
17:00+5˚se6975100 0.0 1025759
20:00+4˚se5874100 0.0 1026782
1 december, tue
tue123:00+4˚se4775100 0.0 1026663
02:00+4˚se4777100 0.0 1026528
05:00+3˚ese4773100 0.0 1026422
08:00+2˚ese5773100 0.0 1028514
11:00+1˚ese5776100 0.0 1028579
14:00+2˚ese5775100 0.0 1028611
17:00+1˚ese597799 0.0 1028612
20:00ese5107588 0.0 1029472
2 december, wed
wed223:00−1˚ese597599 0.0 1029546
02:00−1˚ese6107699 0.0 1030512
05:00−1˚ese6117397 0.0 1030582
08:00−2˚ese6107598 0.0 1030552
11:00−1˚ese6975100 0.0 1031563
14:00−1˚ese6981100 0.1 1030579
17:00−1˚ese61077100 0.0 1030524
20:00−1˚ese61072100 0.0 1031535